Tracking 19817 objects as of 20-Aug-2019
HD Live streaming from Space Station
objects crossing your sky now

COSMOS 2251 DEB

Track COSMOS 2251 DEB now!
10-day predictions


NORAD ID: 34011
Int'l Code: 1993-036GW
Perigee: 761.6 km
Apogee: 824.7 km
Inclination: 74.0 °
Period: 100.6 minutes
Semi major axis: 7164 km
RCS: 0.04 m2 (small)
Launch date: June 16, 1993
Source: Commonwealth of Independent States (former USSR) (CIS)
Launch site: PLESETSK MISSILE AND SPACE COMPLEX (PKMTR)

Note: This is SATELLITE DEBRIS
aabbcc
Your satellite tracking list
Your tracking list is empty




NASA's NSSDC Master Catalog

Two Line Element Set (TLE):
1 34011U 93036GW  19232.21195263  .00000235  00000-0  96689-4 0  9998
2 34011  74.0175 238.9040 0044073 155.9468 204.3755 14.31710313548611
Source of the keplerian elements: AFSPC